TimeCET,TemperatureF,Dew PointF,Humidity,Sea Level PressureIn,VisibilityMPH,Wind Direction,Wind SpeedMPH,Gust SpeedMPH,PrecipitationIn,Events,Conditions,WindDirDegrees,DateUTC
12:00 AM,50,45,78,30.28,12,WNW,12.7,,,,Scattered Clouds,300,2013-12-18 23:00:00
12:55 AM,48.2,44.6,87,30.27,6.2,NW,12.7,-,N/A,,Partly Cloudy,310,2013-12-18 23:55:00
1:00 AM,49,44,76,30.28,12,NW,12.7,,,,Scattered Clouds,310,2013-12-19 00:00:00
1:55 AM,48.2,42.8,82,30.24,-9999.0,NW,13.8,-,N/A,,Clear,310,2013-12-19 00:55:00
2:00 AM,48,43,77,30.26,12,NW,13.8,,,,Scattered Clouds,310,2013-12-19 01:00:00
3:00 AM,49,42,68,30.26,12,West,10.4,,,,,280,2013-12-19 02:00:00
3:55 AM,48.2,39.2,71,30.24,-9999.0,West,9.2,-,N/A,,Clear,280,2013-12-19 02:55:00
4:00 AM,48,40,64,30.26,12,West,9.2,,,,,280,2013-12-19 03:00:00
4:55 AM,48.2,42.8,82,30.21,-9999.0,West,10.4,-,N/A,,Clear,280,2013-12-19 03:55:00
5:00 AM,49,42,69,30.23,12,West,10.4,,,,,280,2013-12-19 04:00:00
5:55 AM,50.0,44.6,82,30.21,-9999.0,WNW,8.1,-,N/A,,Clear,300,2013-12-19 04:55:00
6:00 AM,50,44,72,30.22,12,WNW,8.1,,,,,300,2013-12-19 05:00:00
6:55 AM,48.2,41.0,76,30.21,6.2,WNW,11.5,-,N/A,,Partly Cloudy,300,2013-12-19 05:55:00
7:00 AM,49,41,64,30.22,12,WNW,11.5,,,,Scattered Clouds,300,2013-12-19 06:00:00
7:55 AM,48.2,39.2,71,30.21,6.2,WNW,10.4,-,N/A,,Partly Cloudy,300,2013-12-19 06:55:00
8:00 AM,48,39,61,30.22,12,WNW,10.4,,,,Scattered Clouds,300,2013-12-19 07:00:00
8:55 AM,48.2,41.0,76,30.21,-9999.0,West,8.1,-,N/A,,Clear,270,2013-12-19 07:55:00
9:00 AM,49,41,64,30.22,12,West,8.1,,,,Scattered Clouds,270,2013-12-19 08:00:00
9:55 AM,51.8,42.8,71,30.18,-9999.0,West,5.8,-,N/A,,Clear,270,2013-12-19 08:55:00
10:00 AM,52,42,61,30.22,12,West,5.8,,,,,270,2013-12-19 09:00:00
10:55 AM,55.4,48.2,77,30.21,-9999.0,South,5.8,-,N/A,,Clear,190,2013-12-19 09:55:00
11:00 AM,55,48,69,30.22,12,South,5.8,,,,Scattered Clouds,190,2013-12-19 10:00:00
11:55 AM,57.2,51.8,82,30.18,-9999.0,South,8.1,-,N/A,,Clear,190,2013-12-19 10:55:00
12:00 PM,57,51,74,30.20,12,South,8.1,,,,Scattered Clouds,190,2013-12-19 11:00:00
12:55 PM,57.2,53.6,88,30.15,-9999.0,South,13.8,-,N/A,,Clear,190,2013-12-19 11:55:00
1:00 PM,58,53,78,30.16,12,South,13.8,,,,Scattered Clouds,190,2013-12-19 12:00:00
1:55 PM,57.2,51.8,82,30.15,-9999.0,South,12.7,-,N/A,,Clear,190,2013-12-19 12:55:00
2:00 PM,57,53,80,30.16,12,South,12.7,,,,Scattered Clouds,190,2013-12-19 13:00:00
2:55 PM,59.0,55.4,88,30.12,6.2,South,8.1,-,N/A,,Scattered Clouds,190,2013-12-19 13:55:00
3:00 PM,59,54,80,30.14,12,South,8.1,,,,Partly Cloudy,190,2013-12-19 14:00:00
3:55 PM,59.0,53.6,82,30.12,6.2,South,12.7,-,N/A,,Scattered Clouds,190,2013-12-19 14:55:00
4:00 PM,58,54,84,30.13,12,South,12.7,,,,Partly Cloudy,190,2013-12-19 15:00:00
4:55 PM,55.4,53.6,94,30.09,6.2,South,13.8,-,N/A,,Partly Cloudy,190,2013-12-19 15:55:00
5:00 PM,56,53,87,30.11,12,South,13.8,,,,Scattered Clouds,190,2013-12-19 16:00:00
5:55 PM,55.4,53.6,94,30.09,6.2,SW,9.2,-,N/A,,Partly Cloudy,220,2013-12-19 16:55:00
6:00 PM,55,53,90,30.11,12,SW,9.2,,,,Scattered Clouds,220,2013-12-19 17:00:00
6:55 PM,53.6,51.8,94,30.09,-9999.0,SW,8.1,-,N/A,,Clear,230,2013-12-19 17:55:00
7:00 PM,54,52,90,30.10,12,SW,8.1,,,,,230,2013-12-19 18:00:00
7:55 PM,53.6,50.0,88,30.06,-9999.0,SW,9.2,-,N/A,,Clear,220,2013-12-19 18:55:00
8:00 PM,54,51,85,30.09,12,SW,9.2,,,,,220,2013-12-19 19:00:00
8:55 PM,51.8,48.2,88,30.06,-9999.0,West,9.2,-,N/A,,Clear,260,2013-12-19 19:55:00
9:00 PM,51,49,90,30.10,12,West,9.2,,,,,260,2013-12-19 20:00:00
9:55 PM,51.8,48.2,88,30.06,-9999.0,West,9.2,-,N/A,,Clear,260,2013-12-19 20:55:00
10:00 PM,51,49,88,30.10,12,West,9.2,,,,,260,2013-12-19 21:00:00
10:55 PM,53.6,50.0,88,30.06,-9999.0,SW,6.9,-,N/A,,Clear,220,2013-12-19 21:55:00
11:00 PM,53,50,87,30.09,12,SW,6.9,,,,,220,2013-12-19 22:00:00
11:55 PM,53.6,50.0,88,30.06,-9999.0,SW,6.9,-,N/A,,Clear,220,2013-12-19 22:55:00